Content
SEND FEEDBACK

Daily
Averages
Monthly
Summary
United States of America

STATEN ISLAND, NEW YORK


Home > North America > United States > New York
Elevation: 152 feet     Latitude: 40 35N     Longitude: 074 09W

WEATHER
 
SELECT A DAY
Number of Records: 193,948;   Date Range: 1/1/95 - 12/19/14
 
SHARE

PRINT THIS DATA

[ ← Previous Day ]
WEATHER ALMANAC - JUNE 24, 2013
[ Next Day → ]
[ °C ]   °F
We're sorry. There is no daily almanac available for Staten Island, New York on June 24, 2013.
WEATHER BY HOUR - JUNE 24, 2013
[ °C ]   °F
Local TimeTemperatureDewpointHumidityBarometerVisibilityWind DirectionWind SpeedGust SpeedPrecipitationEventsConditions
12:37 AM73.4 °F71.6 °F94 %30.07 in10.0 miSSW (210°)9.2 mphMostly Cloudy
12:51 AM75.0 °F72.0 °F90 %30.08 in10.0 miWSW (240°)9.2 mphMostly Cloudy
1:51 AM73.9 °F72.0 °F93 %30.06 in10.0 miSSW (210°)8.1 mphMostly Cloudy
2:51 AM73.9 °F72.0 °F93 %30.06 in10.0 miSW (230°)6.9 mphMostly Cloudy
3:51 AM73.9 °F71.1 °F91 %30.05 in10.0 miSW (230°)6.9 mphMostly Cloudy
4:51 AM73.0 °F71.1 °F93 %30.05 in10.0 miSW (230°)5.8 mphMostly Cloudy
5:51 AM73.0 °F71.1 °F93 %30.05 in10.0 miSW (230°)9.2 mphMostly Cloudy
6:51 AM73.9 °F71.1 °F91 %30.06 in10.0 miSW (220°)8.1 mphMostly Cloudy
7:51 AM78.1 °F71.1 °F79 %30.06 in10.0 miSW (220°)11.5 mphScattered Clouds
8:51 AM81.0 °F71.1 °F72 %30.06 in10.0 miWest (260°)6.9 mphScattered Clouds
9:51 AM84.9 °F70.0 °F61 %30.05 in10.0 miWSW (240°)5.8 mphPartly Cloudy
10:51 AM89.1 °F70.0 °F53 %30.04 in10.0 miWest (280°)8.1 mphPartly Cloudy
11:51 AM91.9 °F70.0 °F48 %30.04 in10.0 miWSW (250°)11.5 mphScattered Clouds
12:51 PM93.9 °F66.9 °F41 %30.03 in10.0 miVariable4.6 mph18.4 mphMostly Cloudy
1:51 PM93.0 °F68.0 °F44 %30.01 in10.0 miSW (220°)9.2 mph23.0 mphMostly Cloudy
2:51 PM93.9 °F62.1 °F35 %29.97 in10.0 miWest (260°)13.8 mph21.9 mphMostly Cloudy
3:51 PM91.9 °F62.1 °F37 %29.97 in10.0 miWSW (250°)17.3 mphMostly Cloudy
4:51 PM89.1 °F64.9 °F45 %29.96 in10.0 miWSW (240°)16.1 mphMostly Cloudy
5:51 PM86.0 °F66.0 °F51 %29.96 in10.0 miSW (220°)18.4 mph23.0 mphMostly Cloudy
6:51 PM84.9 °F66.9 °F55 %29.97 in10.0 miSW (220°)17.3 mph24.2 mphMostly Cloudy
7:51 PM82.9 °F59.0 °F44 %29.98 in10.0 miWest (280°)16.1 mph27.6 mph0.00 inRainLight Rain
8:51 PM80.1 °F59.0 °F48 %29.99 in10.0 miSW (230°)6.9 mph0.00 inMostly Cloudy
9:51 PM79.0 °F60.1 °F52 %30.01 in10.0 miSW (230°)5.8 mphMostly Cloudy
10:51 PM77.0 °F61.0 °F58 %30.01 in10.0 miSW (230°)6.9 mphMostly Cloudy
11:51 PM78.1 °F63.0 °F60 %30.00 in10.0 miWSW (240°)8.1 mphMostly Cloudy
Hourly data recorded from KEWR, located miles away from Staten Island, New York







STORIES FROM OUR PARTNERS